Preview of NWS' New Version of Forecast
This preview is not operational and should not be used for support decisions.
Latest weather observations around

Astoria, Astoria Regional Airport (KAST)

Using English Units (Switch to International System of Units)
Date/ Time (PDT) Wind (mph) Vis. (mi) Weather Sky Cond. Temp (°F) Rel. Humidity Wind Chill (°F) Heat Index (°F) Pressure Precip. (in)
Air Dwpt 6 hour Altimeter (inHg) Sea level (inHg) 1 hr 3 hr 6 hr
Max Min
Sep 23 02:19 SSW 5 10 Cloudy BKN028 BKN035 OVC046 53 51     93%     30.11        
Sep 23 01:55 SSW 3 10 Cloudy BKN030 OVC037 54 51     90%     30.11 30.11      
Sep 23 00:55 W 5 10 Mostly Cloudy BKN034 55 50     83%     30.08 30.08      
Sep 22 23:55 W 7 10 Mostly Clear FEW038 57 50     77%     30.07 30.07      
Sep 22 22:55 WNW 8 10 Cloudy OVC039 59 52     78%     30.06 30.06      
Sep 22 21:55 WNW 8 10 Cloudy OVC036 59 52     78%     30.05 30.04      
Sep 22 20:55 WNW 9 10 Cloudy OVC038 60 53     78%     30.02 30.02      
Sep 22 19:55 WNW 8 10 Mostly Cloudy BKN042 60 54     80%     29.99 29.99      
Sep 22 18:55 NW 11 10 Mostly Cloudy SCT018 BKN033 BKN049 61 55     81%     29.97 29.96      
Sep 22 18:09 WNW 11 10 Clear   62 56     80%     29.95        
Sep 22 17:55 NW 14 10 Clear   63 56     78%     29.95 29.95      
Sep 22 17:17 WNW 15 10 Cloudy SCT020 BKN026 OVC080 64 57     78%     29.94        
Sep 22 16:55 NW 17 10 Cloudy SCT022 BKN047 OVC055 63 56     78%     29.93 29.93     0
Sep 22 16:19 NW 14 10 Cloudy FEW018 SCT025 OVC060 63 56     78%     29.92        
Sep 22 15:55 NW 14 10 Cloudy SCT017 BKN022 OVC055 63 57     81%     29.91 29.91      
Sep 22 15:41 NNW 14 10 Cloudy SCT015 BKN020 OVC048 63 57     81%     29.91        
Sep 22 14:55 NNW 15 10 Cloudy FEW011 BKN030 OVC036 62 58     86%     29.89 29.89 0    
Sep 22 14:45 NNW 14 10 Light Rain FEW023 OVC031 62 58     86%     29.89   0    
Sep 22 14:27 NNW 17 10 Light Rain FEW012 SCT018 OVC024 61 57     87%     29.88   0    
Sep 22 14:08   9 Light Rain BKN011 OVC019 60 57     90%     29.86   0    
Sep 22 13:55 NW 9 10 Cloudy SCT010 OVC016 63 60     90%     29.85 29.85 0 0  
Sep 22 12:55 Calm 10 Cloudy OVC012 64 60     87%     29.84 29.84 0    
Sep 22 12:23 S 8 10 Cloudy OVC013 63 60     90%     29.83   0    
Sep 22 12:03 SSE 10 10 Cloudy BKN015 OVC021 63 60     90%     29.83   0    
Sep 22 11:55   9 Light Rain BKN014 BKN019 OVC024 62 60     93%     29.84 29.84 0    
Sep 22 10:55 E 7 10 Cloudy BKN018 OVC023 61 59     93%     29.83 29.83 0   0
Sep 22 10:40 E 6 3 Light Rain and Fog/Mist BKN018 OVC024 61 59     93%     29.84   0    
Sep 22 10:31 ENE 3 1.75 Rain and Fog/Mist BKN019 OVC025 61 59     93%     29.85   0    
Sep 22 10:15 ENE 5 6 Light Rain and Fog/Mist BKN024 OVC031 60 59     96%     29.85   0    
Sep 22 10:03 ENE 5 2.5 Light Rain and Fog/Mist SCT022 BKN029 OVC043 60 59     96%     29.84   0    
Sep 22 09:55 Calm 4 Light Rain and Fog/Mist SCT023 OVC028 60 59     96%     29.85 29.84 0    
Sep 22 09:41 E 3 8 Light Rain BKN028 OVC035 60 59     96%     29.84   0    
Sep 22 09:34 E 5 2.5 Light Rain and Fog/Mist BKN030 OVC036 60 58     93%     29.84   0    
Sep 22 08:55 Calm 3 Light Rain and Fog/Mist FEW026 BKN037 OVC065 59 58     96%     29.84 29.84 0    
Sep 22 07:55 SSE 3 5 Light Rain and Fog/Mist SCT055 BKN070 OVC085 59 57     93%     29.84 29.84 0 0  
Sep 22 06:55 ESE 3 7 Light Rain FEW060 OVC085 58 57     97%     29.85 29.85 0    
Sep 22 05:55 SE 3 10 Light Rain FEW014 OVC100 58 57     97%     29.87 29.86 0    
Sep 22 05:47 SE 6 10 Light Rain SCT014 OVC100 58 56     93%     29.86   0    
Sep 22 04:55 SSE 3 10 Cloudy OVC013 58 57     97%     29.88 29.88 0   0
Sep 22 03:55 SSE 5 10 Light Rain OVC011 58 56     93%     29.9 29.9 0    
Sep 22 03:02 ESE 7 10 Cloudy BKN011 OVC033 58 56     93%     29.9        
Sep 22 02:55 SE 6 10 Cloudy SCT011 BKN033 OVC055 58 56     93%     29.92 29.91      
Sep 22 02:33 Calm 10 Cloudy SCT016 SCT034 OVC055 58 56     93%     29.92        
Sep 22 02:26 Calm 10 Cloudy BKN016 BKN034 OVC090 57 56     96%     29.92        
Sep 22 01:55 S 3 10 Clear CLR 57 56     96%     29.93 29.93      
Sep 22 01:13 ESE 3 10 Partly Cloudy SCT011 58 56     93%     29.93        
Sep 22 00:55 ESE 5 10 Cloudy OVC011 58 56     93%     29.93 29.93      
Sep 21 23:55 S 5 10 Cloudy OVC013 58 56     93%     29.96 29.96      
Sep 21 22:55 Calm 10 Mostly Cloudy BKN011 58 57     97%     29.98 29.98      
Sep 21 21:55 SSE 3 10 Partly Cloudy SCT012 59 57     93%     29.99 29.99      
Sep 21 21:47 Calm 10 Partly Cloudy SCT012 59 57     93%     29.99        
Sep 21 21:38 S 3 10 Mostly Cloudy BKN012 60 58     93%     30        
Sep 21 21:29 SSE 3 10 Partly Cloudy SCT011 60 58     93%     30        
Sep 21 21:06 Calm 10 Mostly Cloudy BKN009 60 58     93%     30.01        
Sep 21 20:55 Calm 10 Cloudy OVC010 60 58     93%     30 30      
Sep 21 20:46 S 3 10 Cloudy OVC010 60 58     93%     30        
Sep 21 19:55 SSE 3 10 Cloudy OVC009 61 59     93%     30.01 30.01      
Sep 21 19:37 SW 3 10 Mostly Cloudy BKN009 61 59     93%     30.01        
Sep 21 19:16 SW 3 10 Mostly Clear FEW007 61 58     90%     30.02        
Sep 21 18:55 WSW 5 9 Clear CLR 61 58     90%     30.03 30.03      
Sep 21 17:55 SW 8 10 Partly Cloudy SCT040 64 58     81%     30.04 30.03      
Sep 21 16:55 WSW 10 6 Haze SCT040 66 58     75%     30.05 30.05      
Sep 21 15:55 WSW 7 9 Clear CLR 67 57     71%     30.06 30.06      
Sep 21 14:55 W 8 7 Clear CLR 67 58     73%     30.08 30.08      
Sep 21 14:15 W 8 5 Haze SCT023 SCT030 BKN039 68 58     70%     30.09        
Sep 21 13:55 5 10 Cloudy BKN023 OVC031 68 59     73%     30.09 30.09      
Sep 21 13:43 N 6 10 Cloudy BKN022 BKN027 OVC033 68 59     73%     30.1        
Sep 21 12:55 5 10 Mostly Clear FEW034 67 58     73%     30.1 30.1      
Sep 21 11:55 Calm 10 Cloudy SCT024 OVC031 65 57     76%     30.12 30.12      
Sep 21 11:50 NNE 5 10 Cloudy SCT024 OVC030 64 57     77%     30.12        
Sep 21 11:32 Calm 10 Cloudy FEW014 BKN028 OVC039 64 57     78%     30.12        
Sep 21 10:55 SE 5 10 Mostly Cloudy FEW012 BKN032 64 58     81%     30.13 30.13     0
Sep 21 10:01 ESE 5 10 Cloudy FEW007 SCT023 OVC034 62 59     90%     30.14        
Sep 21 09:55 ESE 6 10 Cloudy BKN023 OVC035 61 59     93%     30.14 30.14      
Sep 21 09:35 E 5 10 Cloudy SCT007 OVC023 61 59     93%     30.14        
Sep 21 09:15 E 5 10 Cloudy BKN007 OVC023 61 59     93%     30.14        
Sep 21 09:04 Calm 10 Cloudy SCT006 OVC023 61 59     93%     30.14        
Sep 21 08:55 E 3 10 Cloudy OVC022 60 59     96%     30.14 30.14      
Sep 21 07:55 Calm 6 Fog/Mist FEW006 BKN018 OVC028 59 58     96%     30.14 30.14 0 0  
Sep 21 07:51 Calm 5 Fog/Mist SCT006 BKN017 OVC028 59 57     94%     30.14   0    
Sep 21 07:21 SSE 3 5 Fog/Mist BKN006 BKN010 OVC015 59 58     96%     30.14   0    
Sep 21 07:05 Calm 3 Light Rain and Fog/Mist FEW005 SCT010 OVC015 59 58     96%     30.14   0    
Sep 21 06:55 Calm 2.5 Light Rain and Fog/Mist FEW006 OVC014 59 58     96%     30.14 30.14 0    
Sep 21 06:43 Calm 2.5 Fog/Mist SCT006 OVC011 59 58     96%     30.14        
Sep 21 06:10 S 3 3 Fog/Mist OVC012 59 58     96%     30.13        
Sep 21 06:03 S 3 3 Fog/Mist SCT009 OVC015 59 58     96%     30.13        
Sep 21 05:55 SSE 3 3 Fog/Mist OVC015 59 58     96%     30.13 30.13 0    
Sep 21 05:48 SSE 3 4 Fog/Mist OVC016 59 58     96%     30.13   0    
Sep 21 05:30 SSE 3 3 Fog/Mist FEW007 OVC014 59 58     96%     30.13   0    
Sep 21 05:22 Calm 2.5 Fog/Mist SCT005 OVC012 59 58     96%     30.13   0    
Sep 21 05:13 ESE 3 2.5 Light Rain and Fog/Mist BKN005 OVC010 59 58     96%     30.13   0    
Sep 21 05:04 ESE 3 2.5 Light Rain and Fog/Mist OVC004 59 58     96%     30.14   0    
Sep 21 04:55 ESE 5 1.5 Light Rain and Fog/Mist OVC004 59 58     96%     30.14 30.14 0   0
Sep 21 04:50 ESE 5 1.75 Light Rain and Fog/Mist OVC003 59 57     94%     30.14   0    
Sep 21 04:33 ENE 3 3 Fog/Mist OVC003 59 58     96%     30.14   0    
Sep 21 04:21 Calm 2.5 Fog/Mist OVC003 59 58     96%     30.15   0    
Sep 21 03:55 Calm 3 Light Rain and Fog/Mist OVC003 59 58     96%     30.15 30.15 0    
Sep 21 03:23 Calm 4 Fog/Mist OVC003 60 59     96%     30.15   0    
Sep 21 03:07 Calm 2 Fog/Mist OVC003 60 59     96%     30.16   0    
Sep 21 02:55 Calm 2.5 Fog/Mist OVC005 60 59     96%     30.16 30.15 0    
Sep 21 02:33 Calm 4 Fog/Mist BKN007 OVC020 60 59     96%     30.16   0    
Sep 21 01:55 Calm 5 Light Rain and Fog/Mist FEW006 OVC021 60 59     96%     30.16 30.16 0 0  
Sep 21 00:55 Calm 6 Fog/Mist FEW014 SCT019 OVC026 60 59     96%     30.16 30.15      
Sep 21 00:42 Calm 10 Cloudy SCT015 BKN024 OVC033 60 59     96%     30.15        
Sep 20 23:55 Calm 10 Partly Cloudy FEW007 SCT034 60 58     93%     30.15 30.15      
Sep 20 23:53 Calm 10 Mostly Cloudy SCT006 BKN034 61 57     88%     30.15        
Sep 20 23:33 Calm 10 Cloudy BKN006 OVC033 60 58     93%     30.15        
Sep 20 23:22 S 3 10 Cloudy SCT006 OVC033 60 58     93%     30.14        
Sep 20 22:55 S 3 10 Cloudy FEW024 OVC032 61 59     93%     30.14 30.14      
Sep 20 22:25 Calm 10 Cloudy OVC031 61 59     93%     30.14        
Sep 20 21:55 Calm 10 Cloudy BKN029 OVC034 61 59     93%     30.14 30.14      
Sep 20 21:48 Calm 10 Cloudy BKN029 OVC035 61 59     93%     30.14        
Sep 20 20:55 Calm 10 Cloudy OVC037 61 59     93%     30.14 30.14      
Sep 20 19:55 Calm 10 Cloudy OVC037 61 58     90%     30.13 30.13      
Sep 20 18:55 WSW 6 10 Cloudy OVC040 62 58     86%     30.13 30.13      
Sep 20 17:55 WSW 8 10 Cloudy FEW016 OVC040 64 58     81%     30.13 30.13      
Sep 20 16:55 W 9 10 Clear   64 58     81%     30.14 30.13      
Sep 20 15:55 WSW 8 10 Cloudy SCT018 OVC040 65 57     76%     30.13 30.13      
Sep 20 14:55 W 7 10 Clear   66 57     73%     30.13 30.13      
Sep 20 13:55 WSW 9 10 Cloudy FEW019 BKN042 OVC049 66 56     70%     30.13 30.12      
Sep 20 13:12 WSW 7 10 Cloudy FEW016 OVC040 65 57     76%     30.13        
Sep 20 12:55 WSW 6 10 Cloudy BKN016 OVC039 65 58     78%     30.12 30.12      
Sep 20 12:46 W 9 10 Cloudy BKN016 BKN040 OVC048 64 58     81%     30.12        
Sep 20 12:16 WSW 9 10 Cloudy FEW016 BKN044 OVC050 65 59     81%     30.12        
Sep 20 12:08 W 9 10 Cloudy FEW017 BKN023 OVC048 65 58     78%     30.12        
Sep 20 11:55 6 10 Cloudy FEW014 BKN043 OVC050 64 58     81%     30.11 30.11      
Sep 20 11:09 W 6 10 Cloudy FEW013 SCT018 OVC032 63 58     84%     30.11        
Sep 20 10:55 SW 6 10 Cloudy SCT010 BKN016 OVC034 62 58     86%     30.11 30.11     0
Sep 20 10:40 SW 5 10 Cloudy BKN010 BKN017 OVC050 63 59     87%     30.11        
Sep 20 09:55 WSW 5 10 Cloudy SCT009 OVC034 62 59     90%     30.1 30.1      
Sep 20 09:53 SW 6 10 Cloudy SCT009 OVC033 63 59     88%     30.1        
Sep 20 09:39 WSW 5 10 Cloudy BKN009 BKN026 OVC035 61 59     93%     30.1        
Sep 20 09:24 WSW 3 10 Cloudy FEW007 SCT028 OVC036 61 59     93%     30.1        
Sep 20 08:55 WSW 3 10 Cloudy BKN037 OVC060 61 59     93%     30.1 30.09 0    
Sep 20 08:21 SW 3 10 Cloudy FEW018 BKN036 OVC060 60 58     93%     30.1   0    
Sep 20 07:55 SW 3 10 Cloudy SCT018 BKN029 OVC120 59 58     96%     30.09 30.09 0 0  
Sep 20 06:55 SW 3 10 Cloudy BKN034 OVC110 58 57     97%     30.08 30.08      
Sep 20 05:55 Calm 10 Cloudy OVC036 58 57     97%     30.07 30.07      
Sep 20 04:55 SW 5 10 Cloudy SCT021 OVC030 58 56     93%     30.08 30.07 0   0
Sep 20 04:41 Calm 10 Cloudy FEW017 FEW022 OVC030 58 57     97%     30.08   0    
Sep 20 03:55 Calm 10 Cloudy SCT017 BKN022 OVC033 59 55     87%     30.08 30.08      
Sep 20 03:16 W 3 10 Mostly Cloudy SCT023 BKN029 58 56     93%     30.08        
Sep 20 02:55 WSW 3 10 Mostly Clear FEW040 57 55     93%     30.08 30.08      
Sep 20 02:26 W 5 10 Mostly Cloudy FEW024 BKN038 58 56     93%     30.09        
Sep 20 01:55 SW 3 10 Cloudy SCT016 BKN024 OVC029 59 56     90%     30.1 30.09      
Sep 20 00:55 W 5 10 Mostly Clear FEW039 58 55     90%     30.09 30.09      
Sep 20 00:16 WNW 7 10 Partly Cloudy SCT026 SCT075 59 56     90%     30.09        
Sep 20 00:05 W 5 10 Mostly Cloudy BKN027 BKN034 60 57     90%     30.09        
Sep 19 23:55 W 5 10 Cloudy SCT025 OVC032 60 57     90%     30.09 30.09      
May 15 09:55 SW 10 6 Fog/Mist BKN008 OVC017 55 54     96%     29.98 29.98      
Notice The following observation data may not be complete
May 15 09:02   7 Cloudy BKN008 OVC017          %              
May 15 05:12 Calm 2 Light Rain and Fog/Mist BKN007 OVC014 53 53     100%     29.95   0    
May 14 22:55 SW 7 10 Cloudy OVC007 55 52     89%     29.95 29.94      
May 14 09:55 3 10 Cloudy OVC011 57 52     83%     29.99 29.99      
May 14 06:55 S 3 10 Cloudy OVC009 54 52     93%     29.99 29.99      
May 13 14:55 WSW 8 10 Clear CLR 70 57     63%     29.91 29.91      
May 13 12:55 WSW 11 10 Clear CLR 69 58     68%     29.91 29.91      
May 13 08:55 Calm 10 Clear CLR 60 55     83%     29.93 29.93      
May 13 06:19 E 5 10 Partly Cloudy SCT002 48 48     100% 46   29.93        
May 13 05:55 SE 3 0.25 Fog VV002 48 48     100% 47   29.93 29.92      
May 12 03:55 NW 3 10 Cloudy OVC010 51 48     89%     30.17 30.17      
May 11 14:55 NW 16 10 Cloudy OVC028 57 50     77%     30.28 30.27      
May 11 09:55 NNW 9 10 Cloudy FEW022 OVC030 56 49     77%     30.3 30.29      
Jun 11 20:44 WNW 6 10 Clear   56 48     75%     30.05        
Jun 10 11:21 WSW 6 5 Light Rain BKN022 BKN030 OVC037 52 47     83%     29.87   0    
Notice The following observation data may not be complete
Jun 09 17:25   10 Mostly Cloudy BKN028 BKN034          %              
Jun 09 06:55 E 6 10 Light Rain BKN060 OVC075 50 47     89% 48   29.88 29.88 0    
Jun 08 06:14 S 9 10 Light Rain FEW019 BKN028 OVC034 55 52     89%     29.64   0    
Jun 08 05:55 S 11 10 Light Rain SCT028 BKN039 OVC070 55 51     86%     29.63 29.63 0    
Jun 08 01:55 E 8 5 Light Rain and Fog/Mist FEW026 OVC036 54 51     90%     29.68 29.68 0 0  
Jun 07 12:55 SW 10 10 Clear CLR 62 52     70%     29.79 29.79